Weather in Sviatohirsk

Ukraine / Donetsk Region     49°02′12″N   37°33′40″E
temp.,
°C
wind,
m/s
gust,
m/s
humid.,
%
clouds,
%
prec.,
mm/h
press.,
hPa
HPBL,
m
10 may, mon
mon1000:00+5wnw310815 0.0 1022266
03:00+4wnw36855 0.0 1023135
06:00+5nw311785 0.0 1023368
09:00+10nnw8135690 0.0 10221653
12:00+13nnw91244100 0.0 10202434
15:00+12nnw81356100 0.0 10191682
18:00+10nnw91665100 0.1 10161448
21:00+8nnw101790100 3.3 1013903
11 may, tue
tue1100:00+9n91793100 2.4 10111049
03:00+9ne61194100 3.5 1012825
06:00+7nne4994100 0.9 1013585
09:00+10ne7107665 1.6 10141149
12:00+10ne91265100 0.1 10151629
15:00+9ne8127690 0.4 10151309
18:00+7ne81388100 0.3 1015911
21:00+7e8128883 0.3 1017762
12 may, wed
wed1200:00+7e81284100 0.1 10181033
03:00+7e71288100 0.3 1018802
06:00+7e71191100 0.2 1018691
09:00+8e61091100 1.2 1018757
12:00+9se6108895 1.4 10171058
15:00+13sse686845 2.9 10151348
18:00+12sse7117817 1.6 1015934
21:00+9sse399084 2.9 1016311
13 may, thu
thu1300:00+8se239290 0.4 101666
03:00+7e229212 0.4 101612
06:00+8ene129297 0.0 101653
09:00+13e3483100 0.0 1016330
12:00+18ese466769 0.1 10151135
15:00+20ese4662100 0.4 1014603
18:00+19e3672100 0.1 1013158
21:00+16ese3380100 0.2 101430
14 may, fri
fri1400:00+14e228993 0.0 101329
03:00+13e379276 0.0 1013126
06:00+14ese31092100 0.0 1013232
09:00+20se68695 0.1 1012631
12:00+25sse565550 0.0 10121073
15:00+27sse4546100 0.0 10111477
18:00+25ese3664100 0.0 1011202
21:00+21se347699 0.0 101155